Flag for U.S.A. Weather past 2 weeks in Providence, Rhode Island, U.S.A.

Now
45 °F

Sunny.


Feels Like: 39 °F
Forecast: 40 / 54 °F
Wind: 13 mph from South

Location: Green State Airport

Current Time: Apr 19, 2015 at 8:57:43 PM

Latest Report: Apr 19, 2015 at 7:51 PM


Visibility: 10 mi

Pressure: 30.25 "Hg

Humidity: 74%

Dew point: 37 °F

Location of ProvidenceLocation

Historic Weather in Providence — Graph

°F

Providence temperature yesterday

Maximum temperature yesterday: 75 °F (at 3:51 PM)
Minimum temperature yesterday: 48 °F (at 4:51 AM)
Average temperature yesterday: 60 °F

Past Weeks' High & Low Weather Summary

 TemperatureHumidityPressure
High75 °F (Apr 18, 3:51 PM)100% (Apr 6, 6:51 AM)30.50 "Hg (Apr 6, 6:51 AM)
Low30 °F (Apr 5, 3:51 AM)13% (Apr 15, 2:51 PM)29.72 "Hg (Apr 10, 8:51 PM)
Average48 °F64%30.17 "Hg
* Reported Apr 4 7:51 PM — Apr 19 7:51 PM, Providence, Weather by CustomWeather, © 2015

Note: Actual official high and low records may vary slightly from our data, if they occured in-between our weather recording intervals... More about our weather records

Advertising

Providence weather history for previous 24 hours

 ConditionsComfort  
Time TempWeatherWind HumidityBarometerVisibility
7:51 PM
Sun, Apr 19
45 °FBroken clouds.13 mph74%30.25 "Hg10 mi
6:51 PM48 °FPartly sunny.12 mph61%30.24 "Hg10 mi
5:51 PM50 °FPartly sunny.16 mph50%30.24 "Hg10 mi
4:51 PM51 °FSunny.15 mph52%30.22 "Hg10 mi
3:51 PM56 °FSunny.18 mph42%30.21 "Hg10 mi
2:51 PM57 °FPartly sunny.7 mph42%30.22 "Hg10 mi
1:51 PM56 °FPassing clouds.7 mph40%30.24 "Hg10 mi
12:51 PM56 °FScattered clouds.N/A40%30.26 "Hg10 mi
11:51 AM55 °FPassing clouds.3 mph42%30.27 "Hg10 mi
10:51 AM52 °FPassing clouds.5 mph45%30.27 "Hg10 mi
9:51 AM52 °FPassing clouds.10 mph47%30.27 "Hg10 mi
8:51 AM51 °FSunny.13 mph48%30.25 "Hg10 mi
7:51 AM48 °FSunny.15 mph52%30.24 "Hg10 mi
6:51 AM46 °FClear.13 mph56%30.22 "Hg10 mi
5:51 AM46 °FClear.14 mph54%30.19 "Hg10 mi
4:51 AM47 °FClear.14 mph52%30.18 "Hg10 mi
3:51 AM47 °FClear.12 mph59%30.15 "Hg10 mi
2:51 AM46 °FClear.9 mph68%30.12 "Hg10 mi
1:51 AM45 °FClear.7 mph74%30.11 "Hg10 mi
12:51 AM47 °FClear.8 mph77%30.09 "Hg10 mi
11:51 PM
Sat, Apr 18
49 °FClear.9 mph71%30.07 "Hg10 mi
10:51 PM50 °FClear.7 mph71%30.04 "Hg10 mi
9:51 PM51 °FClear.6 mph66%30.01 "Hg10 mi
8:51 PM54 °FClear.9 mph59%29.98 "Hg10 mi
Weather by CustomWeather, © 2015

See weather overviewHow to use our weather pages